Regional Weather Roundup
Issued by NWS

Home | Current Version | Previous Version | Graphics & Text | Print | Product List | Glossary On
Versions: 1 2 3 4 5 6 7 8 9 10 11 12 13 14 15 16 17 18 19 20 21 22 23 24 25 26 27 28 29 30 31 32 33 34 35 36 37 38 39 40 41 42 43 44 45 46 47 48 49 50
000
ASUS45 KBOU 261907
RWRCO

WEATHER ROUNDUP FOR COLORADO
NATIONAL WEATHER SERVICE DENVER/BOULDER CO
1200 PM MST THU FEB 26 2015

NOTE: "FAIR" INDICATES FEW OR NO CLOUDS BELOW 12000 FEET WITH NO
SIGNIFICANT WEATHER AND/OR OBSTRUCTIONS TO VISIBILITY.

COZ001>005-013-030-031-262000-
...NORTHWEST COLORADO...

CITY           SKY/WX    TMP DP  RH WIND       PRES   REMARKS
CRAIG            N/A     27  18  69 VRB3      29.99
HAYDEN         PTSUNNY   25  10  54 CALM      29.97F
MEEKER         PTSUNNY   33  14  45 CALM      29.94
MOUNT WERNER   NOT AVBL
STEAMBOAT SPGS CLOUDY    23  12  62 CALM      29.95F
WALDEN         CLOUDY    19   9  63 CALM      29.91F
$$

COZ006>008-011-262000-
...WEST CENTRAL VALLEYS...

CITY           SKY/WX    TMP DP  RH WIND       PRES   REMARKS
GRAND JUNCTION MOSUNNY   39  18  42 SE14      29.96
MONTROSE       CLOUDY    30  19  63 NE5       29.99  WCI  25
EAGLE          MOSUNNY   30  18  59 CALM      29.97
RIFLE          SUNNY     36  13  38 SE3       29.96
DELTA          CLOUDY    34  24  67 CALM      30.00
NUCLA          CLOUDY    34  14  44 N3        29.98F
$$

COZ017>023-064>068-262000-
...SOUTHWEST COLORADO...

CITY           SKY/WX    TMP DP  RH WIND       PRES   REMARKS
DURANGO        CLOUDY    31  23  72 SE10      29.98  WCI  22
CORTEZ         SUNNY     34  17  50 CALM      29.97
PAGOSA SPRINGS CLOUDY    32  20  62 S7        29.99F WCI  26
TELLURIDE      CLOUDY    26   6  42 SE5       29.95F WCI  21
WOLF CREEK PAS PTSUNNY   14   5  67 SW15G22   29.94F WCI  -1
$$

COZ009-010-012-014-032>034-037-058>063-262000-
...CENTRAL COLORADO...

CITY           SKY/WX    TMP DP  RH WIND       PRES   REMARKS
ASPEN          MOSUNNY   30   4  33 N8        29.90  WCI  22
BUENA VISTA    PTSUNNY   20  10  64 CALM      29.95
COPPER MTN     CLOUDY    12   3  67 W17G29    29.81F WCI  -5
BERTHOUD PASS  LGT SNOW   1  -4  78 NW9G17    29.79S VSB 3/4 WCI -14
COTTONWOOD PAS PTSUNNY   19  14  79 SE5       29.88F WCI  13
GUNNISON       PTSUNNY   18  10  73 CALM      30.00F
KREMMLING      CLOUDY    23  10  58 CALM      29.96F
LEADVILLE      CLOUDY    18   1  47 W9        29.85  WCI   7
SALIDA         SUNNY     25  14  63 SE9       30.03F WCI  15
SUNLIGHT       MOSUNNY   19  12  73 CALM        N/A
WILKERSON PASS MOSUNNY  N/A N/A N/A SW6       29.86F
$$

COZ069>075-262000-
...SAN LUIS VALLEY/SANGRE DE CRISTO MOUNTAINS...

CITY           SKY/WX    TMP DP  RH WIND       PRES   REMARKS
ALAMOSA        PTSUNNY   26  17  68 S5        29.97  WCI  20
LA VETA PASS   LGT SNOW  21  12  68 SW6       29.90F WCI  14
SAGUACHE       CLOUDY    27  19  74 SE6       29.97F WCI  20
$$

COZ035-036-038>040-262000-
...NORTHERN COLORADO FRONT RANGE...

CITY           SKY/WX    TMP DP  RH WIND       PRES   REMARKS
DENVER INTL AP CLOUDY    16  10  77 E9        30.14  WCI   4
DMNS CITY PARK   N/A     18  12  77 NE8G14    30.14S WCI   7
AURORA         CLOUDY    16   9  73 E9        30.12  WCI   4
FRONT RANGE AP FLURRIES  19  12  73 E7        30.14  WCI  10
ERIE MUNI ARPT FLURRIES  18  12  75 E7        30.17F WCI   9
BOULDER MUN AP LGT SNOW  18  12  79 NE7       30.15F WCI   8
CENTENNIAL     FLURRIES  16   8  71 NE9       30.09  WCI   4
BROOMFIELD     LGT SNOW  18  10  73 NE8       30.13  WCI   7
FORT COLLINS   MOSUNNY   18   9  68 SE7       30.19F WCI   8
LONGMONT       FLURRIES  25  12  59 E6        30.19F WCI  18
$$

COZ041-046-047-076>085-087-088-262000-
...PIKES PEAK/PALMER DIVIDE AND SOUTHERN FOOTHILLS...

CITY           SKY/WX    TMP DP  RH WIND       PRES   REMARKS
COLO. SPRINGS  LGT SNOW  14  10  84 S17       30.10F VSB 3/4 WCI  -3
A. F. ACADEMY  LGT SNOW  14   8  75 S14       30.04F WCI  -1
ELLICOTT       NOT AVBL
FALCON         LGT SNOW  16   7  68 S13       30.06F WCI   2
FORT CARSON    LGT SNOW  15  11  85 S15       30.10  VSB 1   WCI  -1
LIMON          CLOUDY    13   9  84 SE10      30.16F WCI   0
MONUMENT HILL  FLURRIES  21   9  58 S8        30.01F WCI  12
TRINIDAD       LGT SNOW  18  13  80 NE6       30.12  WCI  10
$$

COZ042>045-048>051-090-091-262000-
...NORTHEAST COLORADO...

CITY           SKY/WX    TMP DP  RH WIND       PRES   REMARKS
GREELEY ARPT   CLOUDY    18   7  62 NE7       30.19F WCI   8
AKRON          LGT SNOW  14   8  77 E5        30.23  WCI   6
BURLINGTON     LGT SNOW  16   9  74 E12       30.27  WCI   3
WRAY           CLOUDY    18   5  58 N5        30.33F WCI  11
STERLING       CLOUDY    18   9  68 NE3       30.28F
HOLYOKE        NOT AVBL
FORT MORGAN    CLOUDY    18   9  67 NE8       30.24F WCI   7
$$

COZ086-089-092>099-262000-
...SOUTHEAST COLORADO...

CITY           SKY/WX    TMP DP  RH WIND       PRES   REMARKS
PUEBLO         CLOUDY    18  14  84 SE12      30.19F WCI   5
LA JUNTA       LGT SNOW  19  13  77 SE14      30.25F WCI   6
LAMAR          LGT SNOW  20  12  71 SE9       30.29F WCI   9
SPRINGFIELD      N/A     16  10  77 E10       30.26  WCI   4
$$



USA.gov is the U.S. government's official web portal to all federal, state and local government web resources and services.